Regional Weather Roundup
Issued by NWS Wakefield, VA

Home | Current Version | Previous Version | Text Only | Print | Product List | Glossary On
Versions: 1 2 3 4 5 6 7 8 9 10 11 12 13 14 15 16 17 18 19 20 21 22 23 24 25 26 27 28 29 30 31 32 33 34 35 36 37 38 39 40 41 42 43 44 45 46 47 48 49 50
000
ASUS41 KAKQ 010615
RWRAKQ

REGIONAL WEATHER ROUNDUP
NATIONAL WEATHER SERVICE WAKEFIELD VA
200 AM EDT SAT AUG 01 2015

Note: "fair" indicates few or no clouds below 12,000 feet with no
significant weather and/or obstructions to visibility. * = Denotes
station may not report precipitation (e.g., rain,snow,etc.),
thunder or fog.

VAZ042-051-052>054-056-010700-
NORTHERN VIRGINIA

CITY           SKY/WX    TMP DP  RH WIND       PRES   REMARKS
WASH NATIONAL  PTCLDY    77  64  64 S7        29.89F
DULLES         PTCLDY    70  65  84 CALM      29.90F
FORT BELVOIR   CLEAR     67  65  94 CALM      29.89F
QUANTICO       NOT AVBL
FREDERICKSBRG* CLEAR     72  67  84 CALM      29.90S
STAFFORD*      CLEAR     64  63  95 CALM      29.95S
WARRENTON      CLEAR     65  65 100 CALM      29.90F
CULPEPER*      CLEAR     64  64  99 CALM      29.92F
MANASSAS*      CLEAR     66  66 100 CALM      29.90F
LEESBURG*      PTCLDY    72  66  83 SW5       29.90F
WINCHESTER     CLEAR     72  61  68 SW3       29.92S
FRONT ROYAL*   FAIR      64  61  88 S6        29.92S
LURAY*         FAIR      68  64  88 S5        29.95F
$$

VAZ048-049-060>072-079>083-010700-
CENTRAL AND SOUTH CENTRAL VIRGINIA

CITY           SKY/WX    TMP DP  RH WIND       PRES   REMARKS
RICHMOND       CLEAR     71  64  78 CALM      29.91F
CHESTERFIELD*  FAIR      66  54  63 CALM      29.93F
PETERSBURG*    CLEAR     65  65 100 CALM      29.93S
HANOVER        CLEAR     67  64  90 CALM      29.93F
TAPPAHANNOCK*  CLEAR     67  64  89 CALM      29.92S
QUINTON*       FAIR      67  66  97 CALM      29.91S
CHARLOTTSVILLE CLEAR     68  63  84 VRB3      29.93F
GORDONSVILLE*  FAIR      64  64 100 CALM      29.92S
ORANGE*        CLEAR     66  64  94 CALM      29.93F
LOUISA*        CLEAR     64  63  94 CALM      29.91F
BUMPASS*       FAIR      67  63  89 CALM      29.91F
FARMVILLE*     CLEAR     65  65  99 CALM      29.93S
CREWE*         FAIR     N/A N/A N/A CALM      29.93F
FORT PICKETT*  FAIR      68  63  85 CALM      29.93F
CHASE CITY*    FAIR      68  68 100 CALM      29.95S
CLARKSVILLE*   FAIR      70  63  78 CALM      29.94S
SOUTH HILL*    CLEAR     64  63  97 CALM      30.00S
LAWRENCEVILLE* FAIR      66  63  88 CALM      29.93S
EMPORIA*       CLEAR     64  64 100 CALM      29.94S
$$

VAZ088>098-010700-
SOUTHEAST VIRGINIA

CITY           SKY/WX    TMP DP  RH WIND       PRES   REMARKS
NORFOLK        CLEAR     74  66  76 S5        29.91F
VIRGINIA BEACH CLEAR     73  65  75 SW3       29.91F
NORFOLK NAVAL  PTCLDY    74  67  78 S6        29.93S
WEST POINT*    CLEAR     69  66  90 CALM      29.92S
SALUDA*        FAIR      72  67  87 SW6       29.90F
NEWPORT NEWS   CLEAR     73  68  84 SW3       29.91F
LANGLEY AFB    CLEAR     72  68  88 SW5       29.91F
FORT EUSTIS    CLEAR     77  72  86 SW5       29.89F
WILLIAMSBURG*  CLEAR     73  72  94 S5        29.92F
HR EXEC AP*    FAIR      66  63  88 CALM      29.94F
FRANKLIN*      CLEAR     69  67  91 SE3       29.93S
WAKEFIELD      CLEAR     67  65  93 CALM      29.92F
$$

VAZ020-022-025-037-045-010700-
WEST CENTRAL AND SOUTHWEST VIRGINIA

CITY           SKY/WX    TMP DP  RH WIND       PRES   REMARKS
STAUNTON*      CLEAR     64  60  87 CALM      29.99F
WAYNESBORO*    FAIR      63  58  84 SW5       29.99F
HOT SPRINGS VA CLEAR     65  56  72 W12       30.09F
LYNCHBURG      CLEAR     63  62  97 CALM      29.98F
DANVILLE       CLEAR     67  64  90 CALM      29.96F
SOUTH BOSTON*  FAIR      64  63  95 CALM      29.95S
MARTINSVILLE   CLEAR     61  61 100 CALM      30.02R
ROANOKE        CLEAR     69  58  67 W7        30.01F
BLACKSBURG     CLEAR     61  59  96 CALM      30.08F
DUBLIN*          N/A     63  60  90 W3        30.07F
MARION*        CLEAR     59  57  93 W5        30.12F
HILLSVILLE*    CLEAR     62  57  83 W5        30.09S
RICHLANDS*     FAIR      64  58  80 CALM      30.11S
WISE*          PTCLDY    63  55  77 SW3       30.13S
ABINGDON*      CLEAR     62  57  84 CALM      30.09S
$$

MDZ021>025-VAZ099-100-010700-
SOUTHERN MARYLAND AND THE DELMARVA PENINSULA

CITY           SKY/WX    TMP DP  RH WIND       PRES   REMARKS
PATUXENT RIVER CLEAR     73  65  75 SW7       29.89F
BAY BRIDGE APT   N/A     79  63  57 SW8       29.88F
LEONARDTOWN    CLEAR     70  64  83 CALM      29.91F
DOVER          CLEAR     72  66  81 S7        29.85F
GEORGETOWN     CLEAR     69  65  86 SW5       29.89F
EASTON         CLEAR     73  71  95 CALM      29.91F
CAMBRIDGE      CLEAR     70  64  83 CALM      29.88F
SALISBURY      CLEAR     72  66  81 W5        29.88F
OCEAN CITY     CLEAR     73  64  73 W7        29.88F
WALLOPS ISLAND CLEAR     75  67  76 SW7       29.89F
ACCOMACK*      CLEAR     70  68  94 SW6       29.90F
$$

NCZ012>017-030>032-010700-
NORTH CENTRAL AND EASTERN NORTH CAROLINA

CITY           SKY/WX    TMP DP  RH WIND       PRES   REMARKS
ROANOKE RAPIDS FAIR      66  64  94 CALM      29.94R
RALEIGH        PTCLDY    70  65  84 CALM      29.94F
ELIZABETH CITY PTCLDY    69  67  93 S5        29.93S
AHOSKIE*       CLEAR     68  66  94 CALM      29.93F
EDENTON*       PTCLDY    75  66  75 S5        29.93S
CURRITUCK*     PTCLDY    72  66  83 CALM      29.93F
KILL DEVIL HLS PTCLDY    75  64  70 CALM      29.92S
MANTEO         PTCLDY    77  67  70 SE3       29.94R
CAPE HATTERAS  CLOUDY    78  72  81 NE3       29.93F
TARBORO*         N/A     71  69  93 CALM      29.94F
GOLDSBORO      CLEAR     76  69  78 CALM      29.91S
WASHINGTON     PTCLDY    73  71  93 CALM      29.93F
GREENVILLE     PTCLDY    73  72  94 CALM      29.95F
NEW BERN       PTCLDY    75  72  90 CALM      29.94F
WILMINGTON     PTCLDY    77  74  90 NW5       29.93F
$$

VAZ048-010700-
ELSEWHERE

CITY           SKY/WX    TMP DP  RH WIND       PRES   REMARKS
HARRISBURG PA  CLEAR     76  61  59 SW7       29.85S
BALTIMORE      PTCLDY    70  63  78 W5        29.87F
ANNAPOLIS      CLEAR     74  63  68 W3        29.87F
ANDREWS AFB    CLEAR     72  65  78 SW7       29.89F
PHILADELPHIA   CLEAR     76  65  68 SW8       29.85F
HENDERSON NC   CLEAR     67  63  88 CALM      29.95S
GREENSBORO     CLEAR     72  60  66 W5        29.98S
ROCKY MOUNT    CLEAR     70  65  84 CALM      29.93F
$$

VAZ100-010700-
MARINE

STATION/POSITION TIME  TEMP    WIND        PRES    WAVE   SWELL
                       AIR SEA DIR/SP/G            HT/PER HT/PER
                 (UTC) (F)     (DEG/KT/KT) (MB)    (FT/S) (FT/S)
BRANDYWINE LGT   0500   75 74  220/ 10/ 10 1012.1S
CAPE MAY NJ      0500   75 77  220/  6/  8 1011.5F
LEWES DE         0500   74 76  220/  5/  7 1011.8F
15NM E FENWICK I 0550   80 79  240/ 12/ 14 1011.6F   3/11   3/11
OCEAN-CITY-INLET 0500   75 76  270/  3/  5 1011.3F
WACHAPREAGUE VA  0500   75 83  260/  5/  6 1012.8F
GOOSES REEF MD   0600   80 82  250/ 10/ 12 1012.9F
COVE POINT MD    0500   77     250/  9/ 13 1012.9F
SOLOMONS ISLAND  0500      83                N/A
BISHOPS HEAD MD  0500   83 82  240/ 13/ 15 1011.4F
PINEY POINT MD   0500          250/  6/  8   N/A
POTOMAC MD       0600   80 83  240/ 10/ 12 1011.1F   1/ 2
CAMBRIDGE MD     0500   75 85  160/  1/  2 1011.3F
LEWISETTA VA     0500   76 84  240/  8/  9 1012.2F
RAPPAHANNOCK LGT 0500          220/ 11/ 12 1013.2F
STINGRAY PT      0600   81 83  220/ 10/ 10 1012.6F
YORK RVR RNG VA  0500   80     220/ 10/ 11 1012.3F
YORKTOWN VA      0500   76 84  200/  5/  6 1012.6F
JAMESTOWN VA     0600   76 86  200/  6/  8   N/A
DOMINION TERM VA 0500   80     220/ 10/ 12 1012.9F
KIPTOPEKE VA     0500      83  220/  8/  9   N/A
CHES BAY BRIDGE  0500   79 78  190/  8/ 10 1012.6F
CAPE HENRY VA    0500   77     200/  7/  9   N/A
CHESAPEAKE LGHT  0500   79     230/  9/ 10 1013.8F
WILLOUBY STN VA  0500   80     240/  6/  9 1013.9F
CAPE HENRY BUOY  0528      81                N/A     2/ 8   2/11
1ST LANDING BUOY 0600      78              1012.6F   1
CAPE CHARLES BUO 0526      80                N/A     2/ 9   2/ 9
OFFSHORE WE BUOY 0511      82                N/A     3/ 9   3/ 9
64NM E OF VA BCH 0550   81 81  250/  4/  4 1012.8F   3/ 9   3/ 9
DUCK PIER NC     0500   79 66  170/  4/  5 1012.7F
44100 DUCK FRF   0524      81                N/A     3/10
44056 DUCK FRF   0511      80                N/A     2/ 9
OREGON INLET NC  0500   78 81  140/  2/  2 1013.4F
HATTERAS NC      0500   80 82  110/  5/  8 1013.9R
DIAMOND SHLS NC  0550   82 85   60/  4/  6 1013.5F   4/ 8   3/ 8
CAPE LOOKOUT NC  0600   78     250/  5/  7 1012.3F
$$


USA.gov is the U.S. government's official web portal to all federal, state and local government web resources and services.